SWARM C (39453 NORAD) Tracking and Keplerian Element Data

This shows tracking and keplerian element data for the satellite.

Feedback or suggestion? Click here.




ElementValue
Catalog39453
NameSWARM C
Epoch Orbit28420
Epoch Day348.95211295
Epoch Year2018
RAAN332.8168
Inclination87.3452
Eccentricity0.0002964
Argument of Perigee77.6034
Mean Anonmoly282.5555
Mean Motion15.43512295
Decay Rate9.58E-06
L11 39453U 13067C 18348.95211295 .00000958 00000-0 20335-4 0 9998
L22 39453 87.3452 332.8168 0002964 77.6034 282.5555 15.43512295284209

Live tracking and technical data element details for SWARM C (NORAD 39453). SWARM C can be tracked NOW for your location showing map with azimuth and elevation plus other details from your city location.

Track the satellite on the map from your city or location and see movement details for azimuth, elevation, latitude, longitude, range, height, and movement on the map or in text.







IsCatalogInMostPopularTable: catalog: 39453, numindb: 93
Update: records affected: 1



GetName: 39453 SWARM C

Hit Count: updated at: Sun, 16 Dec 2018 04:00:12 GMT